Weather History for KMKT - December, 2013

Change the Weather History Date:

Sunday, December 29, 2013

  Actual Average Record
Temperature  
Mean Temperature 3 °F -  
Max Temperature 17 °F 22 °F 55 °F (1999)
Min Temperature -11 °F 9 °F -11 °F (2013)
Degree Days  
Heating Degree Days 62    
Moisture  
Dew Point -8 °F    
Average Humidity 73    
Maximum Humidity 86    
Minimum Humidity 55    
Precipitation  
Precipitation 0.00 in - - ()
Sea Level Pressure  
Sea Level Pressure 30.24 in    
Wind  
Wind Speed 18 mph (NW)    
Max Wind Speed 28 mph    
Max Gust Speed 34 mph    
Visibility 10 miles    
Events      
Averages and records for this station are not official NWS values.
T = Trace of Precipitation, MM = Missing Value Source: NWS Daily Summary

Daily Weather History Graph

Daily Weather History Graph

Search for Another Location

Airport or City:

Trip Planner

Search our weather history database for the weather conditions in past years. The results will help you decide how hot, cold, wet, or windy it might be!

Date:

Astronomy

Dec. 29, 2013 Rise Set
Actual Time 7:50 AM CST 4:45 PM CST
Civil Twilight 7:17 AM CST 5:18 PM CST
Nautical Twilight 6:41 AM CST 5:54 PM CST
Astronomical Twilight 6:05 AM CST 6:30 PM CST
Moon 4:32 AM CST 2:26 PM CST
Length of Visible Light 10h 00m
Length of Day
8h 54m
Waning Crescent, 11% of the Moon is Illuminated
Dec 29
Waning Crescent
Jan 1
New
Jan 7
First Quarter
Jan 15
Full
Jan 23
Last Quarter

Hourly Weather History & Observations

Time (CST) Temp. Windchill Dew Point Humidity Pressure Visibility Wind Dir Wind Speed Gust Speed Precip Events Conditions
12:15 AM - - - N/A% 30.00 in 10.0 mi NNW 24.2 mph 34.5 mph N/A   Unknown
12:35 AM 17.6 °F 0.1 °F 14.0 °F 86% 30.02 in 10.0 mi NNW 23.0 mph 34.5 mph N/A   Unknown
12:55 AM 17.6 °F -1.3 °F 12.2 °F 79% 30.03 in 10.0 mi North 27.6 mph 32.2 mph N/A   Unknown
1:15 AM 17.6 °F 0.5 °F 10.4 °F 73% 30.05 in 10.0 mi NNW 21.9 mph 29.9 mph N/A   Unknown
1:35 AM 15.8 °F -2.7 °F 10.4 °F 79% 30.06 in 9.0 mi North 24.2 mph 28.8 mph N/A   Unknown
1:55 AM 15.8 °F -2.3 °F 10.4 °F 79% 30.08 in 10.0 mi NNW 23.0 mph 27.6 mph N/A   Unknown
2:15 AM 14.0 °F -3.4 °F 8.6 °F 79% 30.09 in 10.0 mi NNW 19.6 mph 25.3 mph N/A   Unknown
2:35 AM 12.2 °F -6.3 °F 8.6 °F 85% 30.10 in 10.0 mi NNW 20.7 mph 31.1 mph N/A   Unknown
2:55 AM 12.2 °F -6.7 °F 6.8 °F 79% 30.11 in 10.0 mi NNW 21.9 mph - N/A   Unknown
3:15 AM 12.2 °F -5.8 °F 6.8 °F 79% 30.12 in 10.0 mi NNW 19.6 mph - N/A   Unknown
3:35 AM 10.4 °F -9.1 °F 3.2 °F 73% 30.12 in 10.0 mi NNW 21.9 mph 31.1 mph N/A   Unknown
3:55 AM 8.6 °F -11.0 °F 1.4 °F 73% 30.13 in 10.0 mi NNW 20.7 mph 28.8 mph N/A   Unknown
4:15 AM 8.6 °F -11.4 °F 1.4 °F 73% 30.14 in 10.0 mi NNW 21.9 mph 27.6 mph N/A   Unknown
4:35 AM 6.8 °F -15.1 °F 1.4 °F 79% 30.15 in 10.0 mi NNW 25.3 mph 34.5 mph N/A   Unknown
4:55 AM 3.2 °F -17.6 °F -4.0 °F 72% 30.16 in 10.0 mi NW 19.6 mph - N/A   Unknown
5:15 AM 3.2 °F -18.1 °F -0.4 °F 85% 30.18 in 10.0 mi NNW 20.7 mph - N/A   Unknown
5:35 AM 1.4 °F -21.4 °F -2.2 °F 85% 30.19 in 10.0 mi NNW 23.0 mph 29.9 mph N/A   Unknown
5:55 AM 1.4 °F -21.0 °F -5.8 °F 72% 30.20 in 10.0 mi NNW 21.9 mph 28.8 mph N/A   Unknown
6:15 AM -0.4 °F -22.3 °F -7.6 °F 72% 30.21 in 10.0 mi NNW 19.6 mph 27.6 mph N/A   Unknown
6:35 AM -0.4 °F -22.8 °F -7.6 °F 72% 30.23 in 10.0 mi NNW 20.7 mph - N/A   Unknown
6:55 AM -2.2 °F -24.7 °F -7.6 °F 78% 30.25 in 10.0 mi NW 19.6 mph - N/A   Unknown
7:15 AM -2.2 °F -25.2 °F -9.4 °F 71% 30.25 in 10.0 mi NNW 20.7 mph 29.9 mph N/A   Unknown
7:35 AM -4.0 °F -26.4 °F -9.4 °F 78% 30.25 in 10.0 mi NNW 18.4 mph - N/A   Unknown
7:55 AM -4.0 °F -25.2 °F -9.4 °F 78% 30.26 in 10.0 mi NNW 16.1 mph 21.9 mph N/A   Unknown
8:15 AM -5.8 °F -26.8 °F -11.2 °F 77% 30.26 in 10.0 mi NNW 15.0 mph - N/A   Unknown
8:35 AM -5.8 °F -27.5 °F -11.2 °F 77% 30.27 in 10.0 mi NNW 16.1 mph 23.0 mph N/A   Unknown
8:55 AM -5.8 °F -29.9 °F - N/A% 30.27 in 10.0 mi NNW 20.7 mph 26.5 mph N/A   Unknown
9:15 AM -5.8 °F -29.4 °F -13.0 °F 71% 30.28 in 10.0 mi NNW 19.6 mph 24.2 mph N/A   Unknown
9:35 AM -5.8 °F -29.9 °F -11.2 °F 77% 30.29 in 10.0 mi NNW 20.7 mph 26.5 mph N/A   Unknown
9:55 AM -5.8 °F -29.9 °F -13.0 °F 71% 30.30 in 10.0 mi NNW 20.7 mph 27.6 mph N/A   Unknown
10:15 AM -5.8 °F -29.9 °F -11.2 °F 77% 30.31 in 10.0 mi NNW 20.7 mph - N/A   Unknown
10:35 AM -5.8 °F -29.4 °F -14.8 °F 65% 30.31 in 10.0 mi NNW 19.6 mph - N/A   Unknown
10:55 AM -5.8 °F -26.8 °F -13.0 °F 71% 30.32 in 10.0 mi NNW 15.0 mph - N/A   Unknown
11:15 AM -5.8 °F -28.2 °F -13.0 °F 71% 30.32 in 10.0 mi NNW 17.3 mph 23.0 mph N/A   Unknown
11:35 AM -5.8 °F -28.8 °F -14.8 °F 65% 30.31 in 10.0 mi NNW 18.4 mph 23.0 mph N/A   Unknown
11:55 AM -4.0 °F -25.8 °F -13.0 °F 65% 30.31 in 10.0 mi NNW 17.3 mph 20.7 mph N/A   Unknown
12:15 PM -4.0 °F -25.2 °F -13.0 °F 65% 30.31 in 10.0 mi NNW 16.1 mph - N/A   Unknown
12:35 PM -2.2 °F -22.9 °F -14.8 °F 55% 30.30 in 10.0 mi NW 16.1 mph 23.0 mph N/A   Unknown
12:55 PM -2.2 °F -22.2 °F -11.2 °F 66% 30.29 in 10.0 mi NW 15.0 mph - N/A   Unknown
1:15 PM -2.2 °F -22.2 °F -11.2 °F 66% 30.29 in 10.0 mi NW 15.0 mph 21.9 mph N/A   Unknown
1:35 PM -2.2 °F -23.5 °F -11.2 °F 66% 30.28 in 10.0 mi NNW 17.3 mph - N/A   Unknown
1:55 PM -2.2 °F -22.2 °F -13.0 °F 60% 30.28 in 10.0 mi NW 15.0 mph - N/A   Unknown
2:15 PM -2.2 °F -20.7 °F -11.2 °F 66% 30.28 in 10.0 mi NNW 12.7 mph - N/A   Unknown
2:35 PM -2.2 °F -22.2 °F -13.0 °F 60% 30.28 in 10.0 mi NNW 15.0 mph - N/A   Unknown
2:55 PM -2.2 °F -22.2 °F -11.2 °F 66% 30.28 in 10.0 mi NNW 15.0 mph - N/A   Unknown
3:15 PM -2.2 °F -21.5 °F -9.4 °F 71% 30.28 in 10.0 mi NW 13.8 mph 20.7 mph N/A   Unknown
3:35 PM -2.2 °F -22.9 °F -11.2 °F 66% 30.28 in 10.0 mi NW 16.1 mph - N/A   Unknown
3:55 PM -2.2 °F -21.5 °F -11.2 °F 66% 30.29 in 10.0 mi NW 13.8 mph - N/A   Unknown
4:15 PM -2.2 °F -21.5 °F -11.2 °F 66% 30.29 in 10.0 mi NW 13.8 mph - N/A   Unknown
4:35 PM -2.2 °F -20.7 °F -11.2 °F 66% 30.29 in 10.0 mi WNW 12.7 mph - N/A   Unknown
4:55 PM -4.0 °F -22.1 °F -11.2 °F 71% 30.28 in 10.0 mi NW 11.5 mph 18.4 mph N/A   Unknown
5:15 PM -5.8 °F -22.4 °F -11.2 °F 77% 30.27 in 10.0 mi NW 9.2 mph - N/A   Unknown
5:35 PM -5.8 °F -21.2 °F -13.0 °F 71% 30.27 in 10.0 mi WNW 8.1 mph - N/A   Unknown
5:55 PM -5.8 °F -21.2 °F -11.2 °F 77% 30.27 in 10.0 mi NW 8.1 mph - N/A   Unknown
6:15 PM -5.8 °F -22.4 °F -13.0 °F 71% 30.27 in 10.0 mi NW 9.2 mph - N/A   Unknown
6:35 PM -7.6 °F -24.6 °F -13.0 °F 77% 30.27 in 10.0 mi NW 9.2 mph - N/A   Unknown
6:55 PM -7.6 °F -22.1 °F -14.8 °F 71% 30.28 in 10.0 mi WNW 6.9 mph - N/A   Unknown
7:15 PM -7.6 °F -20.6 °F -14.8 °F 71% 30.28 in 10.0 mi NW 5.8 mph - N/A   Unknown
7:35 PM -7.6 °F -20.6 °F -14.8 °F 71% 30.28 in 10.0 mi WNW 5.8 mph - N/A   Unknown
7:55 PM -7.6 °F -23.4 °F -14.8 °F 71% 30.28 in 10.0 mi WNW 8.1 mph - N/A   Unknown
8:15 PM -9.4 °F -25.6 °F -14.8 °F 77% 30.28 in 10.0 mi WNW 8.1 mph - N/A   Unknown
8:35 PM -9.4 °F -26.8 °F -14.8 °F 77% 30.27 in 10.0 mi WNW 9.2 mph - N/A   Unknown
8:55 PM -9.4 °F -25.6 °F -14.8 °F 77% 30.28 in 10.0 mi WNW 8.1 mph - N/A   Unknown
9:15 PM -9.4 °F -25.6 °F -14.8 °F 77% 30.27 in 10.0 mi West 8.1 mph - N/A   Unknown
9:35 PM -9.4 °F -24.3 °F -14.8 °F 77% 30.27 in 10.0 mi WNW 6.9 mph - N/A   Unknown
9:55 PM -9.4 °F -18.6 °F -14.8 °F 77% 30.26 in 10.0 mi WNW 3.5 mph - N/A   Unknown
10:15 PM -9.4 °F - -16.6 °F 71% 30.26 in 10.0 mi Calm Calm - N/A   Unknown
10:35 PM -9.4 °F -18.6 °F -14.8 °F 77% 30.27 in 10.0 mi WNW 3.5 mph - N/A   Unknown
10:55 PM -9.4 °F -18.6 °F -16.6 °F 71% 30.27 in 10.0 mi West 3.5 mph - N/A   Unknown
11:15 PM -11.2 °F -20.6 °F -16.6 °F 77% 30.27 in 10.0 mi West 3.5 mph - N/A   Unknown
11:35 PM -11.2 °F - -14.8 °F 84% 30.27 in 10.0 mi Calm Calm - N/A   Unknown
11:55 PM -11.2 °F - -16.6 °F 77% 30.27 in 10.0 mi Calm Calm - N/A   Unknown